Погода в Знаменке

Россия / Карачаево-Черкесская Республика     44°08′50″N   42°03′25″E
темп.,
°C
ветер,
м/с
пор.,
м/с
влажн.,
%
обл.,
%
осадки,
мм/ч
давл.,
гПа
погр.,
м
21 апреля, ср
ср2100:00+11всв2464100 0.0 1013276
03:00+9в356666 0.0 1015140
06:00+8ссв387977 0.1 1017332
09:00+10ссв347799 0.3 1018774
12:00+9с3388100 0.3 1019329
15:00+9с2291100 0.4 1020393
18:00+9ссв1291100 0.1 1021202
21:00+9ссв1295100 0.4 1022167
22 апреля, чт
чт2200:00+9в1395100 0.1 1021249
03:00+9в1295100 0.1 1021113
06:00+9в129698 0.9 1021140
09:00+10в3589100 1.1 1021453
12:00+14всв5469100 0.0 10201057
15:00+13в6669100 0.1 1020972
18:00+11всв4779100 0.1 1020586
21:00+10всв3688100 0.4 1021420
23 апреля, пт
пт2300:00+9ссв1297100 5.9 1021160
03:00+9сз1296100 11.6 1021149
06:00+9з3692100 2.8 1023379
09:00+11з467796 3.3 1023933
12:00+15сз45548 0.2 10211797
15:00+16ссз444971 0.3 10211940
18:00+13с256740 0.0 1021151
21:00+9вюв1177100 0.0 102110
24 апреля, сб
сб2400:00+8юв1177100 0.0 102010
03:00+9ююз1176100 0.0 101914
06:00+8юз227796 0.0 102031
09:00+13з236043 0.0 1019794
12:00+17сз335369 0.0 10181640
15:00+14ссз3566100 0.0 1019416
18:00+13в1170100 0.0 102011
21:00+12св1172100 0.0 102012
25 апреля, вс
вс2500:00+10ссв1177100 0.0 102011
03:00+10ссв1179100 0.0 101916
06:00+10вюв138492 0.0 1019172
09:00+13в4676100 0.0 1016816
12:00+15всв5566100 0.0 10141055
15:00+11ссв2489100 1.6 1015164
18:00+11с119298 0.3 1015151
21:00+10всв2495100 0.3 1014119